White Plains, CT

4:32 AM EST on December 07, 2019 (GMT -0500)
Westchester County

Weather History for KHPN - August, 2019

Change the Weather History Date:

Sunday, August 11, 2019

  Actual Average Record
Temperature  
Mean Temperature 68 °F -  
Max Temperature 78 °F 80 °F 93 °F (2016)
Min Temperature 59 °F 63 °F 53 °F (1974)
Cooling Degree Days 4    
Growing Degree Days 18 (Base 50)    
Moisture  
Dew Point 53 °F    
Average Humidity 59    
Maximum Humidity 78    
Minimum Humidity 39    
Precipitation  
Precipitation 0.00 in - - ()
Sea Level Pressure  
Sea Level Pressure 29.98 in    
Wind  
Wind Speed 5 mph (WNW)    
Max Wind Speed 14 mph    
Max Gust Speed 18 mph    
Visibility 10 miles    
Events      
Averages and records for this station are not official NWS values.
T = Trace of Precipitation, MM = Missing Value Source: NWS Daily Summary

Daily Weather History Graph

Daily Weather History Graph

Search for Another Location

Airport or City:

Astronomy

Aug. 11, 2019 Rise Set
Actual Time 6:00 AM EDT 7:59 PM EDT
Civil Twilight 5:30 AM EDT 8:29 PM EDT
Nautical Twilight 4:53 AM EDT 9:05 PM EDT
Astronomical Twilight 4:13 AM EDT 9:45 PM EDT
Moon 5:37 PM EDT (8/11) 2:17 AM EDT (8/11)
Length of Visible Light 14h 58m
Length of Day
13h 58m
Waxing Gibbous, 87% of the Moon is Illuminated
Aug 11
Waxing Gibbous
Aug 15
Full
Aug 23
Last Quarter
Aug 30
New
Sep 5
First Quarter

Hourly Weather History & Observations

Time (EDT) Temp. Dew Point Humidity Pressure Visibility Wind Dir Wind Speed Gust Speed Precip Events Conditions
12:56 AM 62.1 °F 53.1 °F 72% 29.94 in 10.0 mi Calm Calm - N/A   Clear
1:56 AM 60.1 °F 51.1 °F 72% 29.93 in 10.0 mi NW 3.5 mph - N/A   Clear
2:56 AM 62.1 °F 54.0 °F 75% 29.93 in 10.0 mi WNW 5.8 mph - N/A   Clear
3:56 AM 62.1 °F 55.0 °F 78% 29.93 in 10.0 mi NW 8.1 mph - N/A   Clear
4:56 AM 61.0 °F 54.0 °F 78% 29.95 in 10.0 mi West 4.6 mph - N/A   Clear
5:56 AM 59.0 °F 52.0 °F 78% 29.98 in 10.0 mi NNW 4.6 mph - N/A   Clear
6:56 AM 62.1 °F 54.0 °F 75% 29.99 in 10.0 mi NNW 5.8 mph - N/A   Clear
7:56 AM 64.9 °F 54.0 °F 68% 30.01 in 10.0 mi NW 8.1 mph - N/A   Clear
8:56 AM 69.1 °F 55.0 °F 61% 30.01 in 10.0 mi NW 5.8 mph - N/A   Clear
9:56 AM 71.1 °F 54.0 °F 55% 30.02 in 10.0 mi NW 4.6 mph - N/A   Clear
10:56 AM 73.0 °F 53.1 °F 49% 30.02 in 10.0 mi WNW 5.8 mph - N/A   Partly Cloudy
11:56 AM 73.9 °F 50.0 °F 43% 30.01 in 10.0 mi WNW 8.1 mph - N/A   Partly Cloudy
12:56 PM 75.9 °F 50.0 °F 40% 30.01 in 10.0 mi West 13.8 mph 18.4 mph N/A   Scattered Clouds
1:56 PM 77.0 °F 50.0 °F 39% 30.00 in 10.0 mi West 10.4 mph - N/A   Scattered Clouds
2:56 PM 78.1 °F 51.1 °F 39% 29.99 in 10.0 mi NW 8.1 mph - N/A   Scattered Clouds
3:56 PM 78.1 °F 53.1 °F 42% 29.98 in 10.0 mi WNW 10.4 mph - N/A   Scattered Clouds
4:56 PM 78.1 °F 52.0 °F 40% 29.97 in 10.0 mi WNW 10.4 mph - N/A   Partly Cloudy
5:56 PM 77.0 °F 52.0 °F 42% 29.98 in 10.0 mi WNW 10.4 mph - N/A   Partly Cloudy
6:56 PM 75.0 °F 52.0 °F 44% 29.97 in 10.0 mi WSW 3.5 mph - N/A   Clear
7:56 PM 70.0 °F 55.0 °F 59% 29.97 in 10.0 mi Calm Calm - N/A   Clear
8:56 PM 66.9 °F 55.0 °F 66% 29.99 in 10.0 mi Calm Calm - N/A   Clear
9:56 PM 68.0 °F 55.0 °F 63% 29.99 in 10.0 mi West 3.5 mph - N/A   Clear
10:56 PM 68.0 °F 55.0 °F 63% 29.99 in 10.0 mi Calm Calm - N/A   Clear
11:56 PM 64.0 °F 55.0 °F 73% 29.99 in 10.0 mi WNW 4.6 mph - N/A   Clear